Back to catalog

STARLINK-30235

AliveCommunicationsVLEO
NORAD 57294·PAYLOAD·🇺🇸 United States

Launched Jul 10, 2023 from Cape Canaveral Space Force Station

Loading…

Next Passes (next 24 hours)

TLE

FreshSource: CelesTrak SupGP

Epoch: Sep 14, 2026, 22:26 UTC

1 57294C 23096E   26257.93520833  .00174510  00000+0  32676-2 0  2572
2 57294  43.0016 231.2442 0001495 272.7603 198.1650 15.47732161    15

Track STARLINK-30235 in real time with AllMySat

Download on the App Store